Wind_Speed
51 48 44 39 37 36 37 35 38 35 29 32 29 26 24 23 23 21 19 19 19 15 16 17 15 17 23 21 19 16 17 15 14 11 13 15 16 16 15 14 16 16 16
51 48 45 39 37 38 38 39 39 40 36 33 32 31 29 27 26 25 23 22 23 20 18 18 17 17 20 25 24 21 18 17 19 17 18 19 19 19 19 20 19 20 21
53 50 46 43 40 39 39 39 41 42 43 40 37 37 35 32 30 29 27 24 24 24 21 21 19 19 21 21 23 21 23 23 23 23 22 21 20 18 20 22 19 21 25
55 51 49 45 42 40 38 41 41 43 45 44 45 41 38 34 34 33 31 29 27 27 26 24 23 23 23 22 24 25 24 23 23 23 23 23 22 19 21 24 26 24 25
58 54 52 45 41 41 41 40 42 42 44 45 42 42 41 39 38 36 35 34 33 30 29 27 26 24 24 24 23 24 27 25 25 25 24 24 26 25 24 26 24 22 24
59 57 52 47 45 44 44 42 41 42 42 43 44 42 41 41 39 37 36 37 38 32 29 29 27 24 23 25 25 24 25 25 24 23 23 30 30 27 28 23 24 25 27
59 58 54 49 47 46 45 44 42 40 38 38 41 41 39 39 38 35 35 36 37 32 27 31 29 25 23 25 27 26 26 24 26 25 26 27 28 26 26 22 24 24 25
58 57 55 51 48 46 45 44 41 38 36 33 31 31 31 33 33 30 32 33 31 29 23 28 30 27 23 24 23 26 25 23 25 24 26 28 27 27 23 21 23 26 26
57 57 55 52 48 46 45 43 38 34 33 30 27 28 27 29 30 31 33 34 27 24 18 23 25 26 25 23 23 23 23 24 23 23 26 28 26 21 20 22 22 23 28
57 55 56 54 49 45 43 41 34 31 27 27 30 26 26 22 26 27 30 19 19 18 20 25 27 27 29 26 21 22 23 25 22 22 25 21 21 22 22 24 22 20 22
55 57 58 56 51 44 42 39 36 31 29 28 29 25 23 23 22 19 18 18 16 17 20 22 24 23 21 22 21 22 21 21 21 21 20 20 22 22 17 12 9 13 18
58 56 57 57 52 47 44 42 36 32 28 28 23 20 25 22 18 17 16 15 15 17 17 17 16 13 17 20 23 21 18 17 15 13 14 18 15 8 8 13 15 18 20
50 50 49 50 49 48 47 40 36 32 30 28 27 29 22 16 17 16 15 17 14 16 15 15 13 12 13 13 12 16 17 12 9 10 10 11 10 11 14 17 20 23 23
45 48 48 48 47 46 40 37 36 33 32 30 27 21 20 19 19 17 16 14 15 15 14 14 13 12 14 14 13 11 9 9 10 12 13 12 13 15 16 20 23 23 19
45 44 46 43 42 43 43 41 33 31 26 25 22 20 19 18 15 13 13 12 11 12 14 15 15 12 9 8 8 9 11 13 15 12 13 13 15 16 18 19 17 14 17
52 35 37 38 39 39 29 18 18 22 21 21 19 17 16 11 14 15 14 10 10 11 12 13 12 12 7 8 10 11 11 12 12 14 16 16 14 15 16 16 13 14 16
43 43 42 34 24 21 12 19 33 25 23 21 20 21 18 18 18 15 11 11 10 11 12 12 12 10 8 9 8 9 9 10 12 15 16 17 18 19 19 12 12 15 15
26 25 25 33 31 29 34 32 23 25 27 27 22 20 19 17 14 13 14 13 12 13 11 10 9 11 10 9 9 8 8 8 9 11 13 15 12 9 9 11 13 13 15
16 24 27 26 26 28 27 24 22 22 22 22 22 21 18 15 14 14 15 12 12 13 12 11 12 13 12 10 9 9 11 10 11 13 13 8 9 10 11 11 11 12 15
16 17 21 23 26 29 25 24 22 19 16 15 18 19 17 18 18 18 16 14 14 14 15 13 17 15 12 9 9 11 13 12 10 9 8 9 10 11 13 12 10 14 14
21 18 16 19 20 21 20 20 18 15 16 17 22 19 15 12 15 19 17 14 14 14 15 11 12 12 12 12 13 14 11 9 10 9 10 9 11 14 13 12 11 12 13
7 11 11 15 15 17 19 20 17 17 18 23 24 22 20 16 18 19 15 14 14 15 13 8 11 12 14 12 12 12 12 13 13 13 12 12 14 15 15 13 10 10 12
9 7 7 12 15 18 21 18 21 24 21 20 22 22 20 19 20 19 17 15 14 16 18 16 14 14 13 14 15 13 15 16 15 12 10 11 14 15 13 12 10 11 12
8 10 13 16 15 17 18 18 16 16 17 19 19 20 20 18 19 20 20 15 16 21 21 20 18 15 14 14 15 15 14 15 13 11 12 12 12 11 11 10 10 9 9
5 4 5 7 13 16 14 12 14 10 11 13 17 18 16 16 20 21 17 14 13 17 20 19 16 16 17 13 12 13 12 11 12 13 15 16 15 13 12 10 9 7 8
9 9 11 10 10 14 13 11 11 12 11 14 17 17 14 17 23 21 19 15 13 14 15 16 14 15 16 14 11 8 8 8 9 11 13 13 12 13 14 11 8 8 7
Wind_Direction
224 223 223 224 226 226 220 218 218 224 226 228 234 236 236 234 239 245 249 240 236 237 230 228 231 232 227 234 238 244 248 249 257 248 249 263 279 291 284 287 296 299 302
223 224 223 223 224 225 224 220 219 223 228 230 234 239 240 240 243 248 251 246 241 240 240 240 242 236 238 230 234 245 245 243 251 256 260 274 280 283 272 278 281 284 289
222 223 223 222 223 225 226 225 222 222 225 230 234 239 242 243 243 246 251 253 251 247 243 240 241 250 251 241 246 248 246 249 254 260 266 268 284 300 283 286 284 286 290
225 221 223 222 223 225 226 227 227 225 227 229 233 239 243 245 249 251 253 254 253 251 246 244 247 247 254 257 255 251 243 248 251 257 263 276 281 289 293 295 298 294 291
223 223 222 224 225 226 228 229 229 229 230 231 234 238 242 247 251 255 258 258 254 253 248 245 246 250 253 256 258 252 245 250 256 264 274 281 285 292 302 303 300 299 297
224 226 225 223 225 226 229 231 231 231 231 234 237 239 243 248 253 258 260 262 259 253 251 245 243 249 254 255 258 257 255 259 268 271 279 287 289 293 302 297 296 300 304
224 225 226 225 225 227 228 231 234 232 233 235 238 241 246 252 258 262 262 263 261 261 253 249 246 250 257 259 257 260 259 257 261 287 278 283 287 287 298 292 294 296 297
223 224 226 226 226 226 227 230 232 235 236 237 239 242 249 261 261 259 260 261 262 256 254 250 250 253 258 259 262 251 257 259 266 278 279 285 289 289 285 288 292 294 295
223 224 225 226 225 225 225 227 230 232 234 236 238 235 234 248 253 256 255 254 261 257 255 242 247 255 263 262 255 255 256 258 273 274 283 287 285 284 291 292 291 294 294
224 229 227 225 225 226 225 225 223 228 229 231 235 234 233 243 250 251 252 256 258 250 247 247 251 255 268 263 249 257 257 274 270 280 286 281 289 290 290 289 290 289 295
229 227 225 224 224 226 226 223 222 223 225 230 236 235 240 246 241 240 254 247 241 235 245 251 256 259 252 251 254 262 271 278 282 286 284 296 295 292 289 282 288 298 304
226 223 224 223 221 223 223 221 221 222 220 223 227 223 237 239 245 243 234 219 215 231 243 255 256 246 248 258 266 263 272 279 275 282 304 320 309 289 292 295 299 304 303
217 218 220 221 218 221 219 218 217 212 210 212 214 222 224 220 224 221 218 217 231 243 243 243 243 243 241 256 254 251 258 257 255 281 292 326 305 301 307 305 303 305 302
215 214 215 212 212 213 212 211 203 202 210 206 211 198 202 213 212 215 215 226 239 233 232 232 240 236 251 245 237 234 235 235 252 288 283 283 290 293 295 302 306 309 309
203 202 201 198 199 192 190 190 202 206 210 210 195 194 192 201 204 211 226 225 219 219 224 227 234 238 221 206 213 234 251 252 255 266 269 276 283 281 290 304 309 308 313
188 183 209 197 191 180 197 197 186 168 167 178 172 168 169 175 189 188 190 197 203 207 213 215 209 193 199 218 253 251 246 250 254 256 269 277 276 288 300 307 300 309 312
184 190 189 197 191 182 145 206 174 168 168 166 167 165 172 172 171 173 185 188 185 192 190 189 196 209 228 252 249 251 245 253 262 268 264 271 284 294 295 293 303 305 311
206 215 181 175 168 177 169 186 189 176 166 168 169 176 173 172 173 184 182 188 187 186 187 198 221 243 237 229 252 264 272 273 272 264 266 286 285 284 287 303 308 310 314
166 167 165 153 154 166 165 167 176 173 166 165 172 176 174 181 191 199 196 204 202 195 196 200 224 217 218 236 258 283 294 292 284 284 289 254 272 291 299 303 303 313 317
144 159 158 153 159 165 154 148 158 162 170 184 191 193 189 198 207 201 199 202 200 203 208 213 215 227 225 237 259 280 291 297 291 279 260 264 280 293 295 295 305 317 318
133 141 145 152 151 139 150 154 144 148 159 177 198 188 195 190 203 199 201 197 206 215 219 217 212 219 247 262 283 297 293 295 301 283 267 265 279 298 288 279 301 310 319
138 173 170 182 173 176 170 164 193 191 189 193 195 196 193 191 195 198 199 199 199 205 211 226 244 259 262 267 284 305 296 294 299 278 251 264 281 296 283 280 291 305 314
136 188 169 161 173 184 188 185 194 205 207 212 211 198 196 191 192 200 207 206 209 210 213 230 248 262 268 272 283 309 307 297 298 269 249 260 280 288 267 281 289 297 325
107 162 171 175 179 188 195 183 179 197 210 210 210 219 200 201 198 207 208 210 226 227 223 230 243 266 275 279 279 296 293 285 287 266 263 272 277 280 255 267 284 294 315
255 234 241 212 192 183 184 184 169 173 178 188 195 199 211 215 212 213 217 224 224 220 227 240 247 259 267 269 283 291 313 295 281 273 272 276 275 263 244 256 280 289 295
189 195 203 197 179 151 146 146 167 177 189 192 194 193 209 221 211 215 218 220 215 219 222 228 241 262 253 257 255 280 310 310 291 286 283 269 251 237 239 256 263 268 284
Height
1485 1490 1495 1501 1506 1511 1516 1520 1524 1528 1531 1533 1536 1539 1542 1544 1546 1548 1550 1552 1553 1554 1555 1556 1556 1558 1559 1561 1562 1563 1564 1563 1564 1563 1563 1563 1563 1563 1563 1562 1561 1560 1558
1478 1484 1489 1495 1499 1503 1508 1513 1517 1521 1524 1526 1530 1533 1536 1539 1542 1543 1545 1547 1548 1550 1552 1552 1553 1555 1556 1557 1558 1559 1561 1561 1560 1560 1560 1560 1559 1559 1558 1557 1557 1556 1554
1471 1477 1482 1487 1492 1494 1499 1504 1509 1514 1518 1521 1524 1527 1530 1534 1537 1539 1541 1543 1543 1545 1546 1548 1549 1551 1551 1553 1554 1555 1556 1557 1557 1556 1556 1556 1556 1555 1555 1554 1552 1551 1549
1460 1468 1473 1478 1482 1486 1492 1496 1500 1505 1510 1514 1518 1522 1525 1529 1531 1533 1534 1536 1537 1538 1540 1542 1544 1546 1547 1548 1549 1551 1552 1552 1552 1553 1552 1552 1552 1551 1550 1549 1546 1544 1542
1450 1456 1460 1468 1474 1480 1484 1488 1492 1498 1502 1508 1512 1516 1519 1522 1523 1526 1527 1529 1530 1531 1534 1537 1539 1540 1542 1543 1544 1545 1547 1548 1549 1548 1548 1549 1548 1546 1544 1541 1540 1538 1536
1442 1446 1451 1458 1465 1469 1475 1480 1484 1490 1495 1500 1505 1509 1514 1515 1518 1521 1522 1522 1522 1525 1529 1531 1535 1537 1537 1539 1539 1541 1543 1544 1545 1543 1539 1543 1541 1539 1538 1536 1534 1532 1528
1432 1439 1444 1449 1454 1459 1466 1471 1476 1482 1488 1492 1498 1504 1509 1511 1514 1516 1516 1516 1518 1521 1524 1526 1528 1531 1532 1534 1535 1536 1536 1539 1539 1539 1538 1536 1535 1534 1532 1529 1529 1527 1524
1422 1430 1436 1440 1444 1451 1457 1462 1469 1475 1481 1486 1492 1498 1502 1503 1507 1510 1510 1510 1511 1515 1517 1520 1522 1525 1526 1528 1528 1529 1531 1533 1533 1533 1533 1532 1530 1528 1525 1523 1521 1520 1518
1414 1419 1425 1432 1436 1442 1448 1454 1461 1469 1474 1478 1483 1488 1491 1490 1499 1501 1503 1502 1506 1508 1511 1515 1518 1520 1522 1523 1523 1524 1526 1526 1526 1527 1526 1525 1523 1522 1520 1517 1515 1512 1511
1401 1407 1414 1422 1429 1434 1440 1446 1455 1460 1466 1471 1473 1479 1483 1487 1491 1494 1496 1498 1501 1503 1506 1509 1512 1513 1515 1517 1517 1519 1520 1522 1523 1522 1521 1520 1518 1516 1514 1511 1509 1506 1506
1392 1397 1405 1412 1420 1427 1434 1441 1447 1454 1460 1465 1470 1478 1480 1483 1485 1487 1490 1492 1495 1498 1501 1503 1506 1506 1507 1511 1513 1514 1516 1517 1517 1516 1515 1514 1511 1509 1508 1506 1505 1504 1502
1384 1390 1395 1401 1411 1418 1425 1433 1441 1448 1454 1457 1466 1466 1477 1478 1481 1483 1486 1489 1493 1495 1496 1498 1501 1502 1503 1505 1509 1511 1512 1513 1513 1513 1512 1509 1506 1506 1505 1504 1502 1501 1499
1378 1385 1391 1398 1403 1408 1414 1426 1435 1441 1447 1454 1457 1464 1469 1474 1477 1479 1483 1486 1488 1490 1492 1494 1496 1498 1499 1501 1502 1504 1506 1507 1508 1509 1508 1505 1504 1503 1502 1501 1499 1497 1494
1373 1378 1382 1387 1392 1399 1408 1416 1424 1431 1438 1441 1450 1457 1463 1467 1470 1475 1479 1481 1482 1484 1487 1490 1493 1495 1496 1497 1499 1500 1501 1502 1503 1503 1503 1502 1501 1500 1498 1497 1495 1491 1488
1366 1371 1379 1383 1387 1393 1402 1412 1420 1424 1429 1438 1446 1451 1456 1463 1468 1473 1475 1477 1477 1480 1483 1486 1490 1491 1492 1494 1496 1497 1498 1499 1498 1499 1498 1498 1497 1496 1494 1493 1490 1488 1485
1353 1358 1383 1381 1385 1390 1399 1411 1419 1424 1425 1437 1441 1446 1453 1460 1465 1469 1472 1473 1473 1475 1479 1482 1486 1487 1487 1490 1493 1493 1493 1494 1495 1495 1494 1493 1493 1492 1490 1488 1486 1484 1482
1351 1359 1366 1376 1381 1382 1399 1419 1422 1425 1429 1433 1439 1443 1449 1453 1460 1462 1467 1470 1471 1474 1476 1480 1483 1484 1484 1486 1489 1490 1489 1489 1490 1490 1491 1490 1489 1488 1486 1484 1483 1481 1479
1363 1352 1361 1377 1377 1391 1391 1417 1423 1422 1423 1431 1438 1446 1450 1452 1456 1459 1460 1468 1470 1473 1476 1479 1481 1481 1482 1483 1486 1487 1488 1486 1487 1487 1487 1486 1484 1483 1482 1481 1480 1478 1476
1370 1377 1381 1379 1384 1398 1405 1410 1421 1426 1428 1430 1438 1445 1450 1453 1454 1456 1459 1465 1469 1471 1473 1474 1478 1479 1479 1480 1483 1484 1483 1482 1482 1482 1481 1481 1481 1480 1479 1478 1476 1475 1473
1373 1385 1389 1388 1397 1404 1406 1407 1417 1420 1428 1436 1441 1444 1446 1450 1454 1455 1460 1464 1468 1470 1470 1471 1475 1477 1477 1479 1480 1480 1479 1478 1477 1477 1477 1477 1477 1476 1475 1475 1474 1472 1470
1383 1391 1395 1400 1401 1393 1403 1413 1417 1421 1426 1430 1439 1441 1446 1448 1451 1455 1459 1461 1465 1466 1468 1470 1475 1475 1476 1477 1478 1477 1476 1475 1474 1474 1474 1474 1474 1474 1472 1471 1470 1469 1467
1388 1394 1398 1398 1399 1401 1402 1401 1419 1424 1427 1431 1436 1439 1443 1446 1449 1452 1456 1459 1461 1461 1465 1469 1472 1474 1474 1472 1473 1473 1473 1471 1470 1470 1470 1471 1471 1470 1468 1468 1467 1466 1464
1394 1398 1397 1397 1399 1403 1407 1408 1416 1423 1425 1429 1434 1437 1441 1445 1446 1450 1453 1456 1457 1459 1460 1463 1466 1470 1470 1470 1469 1470 1468 1468 1467 1466 1467 1467 1467 1465 1465 1465 1464 1463 1462
1396 1397 1396 1399 1401 1404 1409 1409 1413 1419 1423 1427 1430 1435 1438 1441 1444 1447 1450 1451 1453 1456 1457 1459 1462 1464 1466 1467 1466 1466 1467 1465 1464 1463 1464 1463 1462 1461 1461 1461 1461 1460 1459
1394 1396 1399 1402 1406 1406 1408 1412 1413 1419 1423 1426 1428 1431 1434 1437 1439 1444 1446 1448 1451 1452 1454 1457 1460 1461 1461 1462 1463 1465 1464 1461 1460 1459 1459 1459 1458 1457 1457 1458 1457 1457 1456
1396 1397 1402 1404 1407 1408 1409 1410 1412 1418 1421 1423 1426 1429 1431 1433 1435 1438 1441 1443 1446 1450 1451 1453 1455 1457 1458 1458 1457 1459 1461 1460 1458 1456 1454 1453 1453 1453 1454 1454 1453 1453 1453